Weather History for Cecil Field, FL

Change the Weather History Date:

Friday, April 19, 2013

  Actual Average (KJAX) Record (KJAX)
Temperature  
Mean Temperature 77 °F 68 °F  
Max Temperature 86 °F 80 °F 92 °F (1968)
Min Temperature 62 °F 55 °F 36 °F (2001)
Degree Days  
Heating Degree Days 0 1  
Month to date heating degree days 45  
Since 1 July heating degree days 1334  
Cooling Degree Days 12 4  
Month to date cooling degree days 60  
Year to date cooling degree days 143  
Growing Degree Days 27 (Base 50)    
Moisture  
Dew Point 70 °F    
Average Humidity 87    
Maximum Humidity 100    
Minimum Humidity 55    
Precipitation  
Precipitation 0.09 in 0.09 in 4.53 in (1900)
Month to date precipitation 1.82  
Year to date precipitation 12.26  
Snow  
Snow 0.00 in 0.00 in 0.00 in (2002)
Month to date snowfall 0.0  
Since 1 July snowfall T  
Snow Depth -    
Sea Level Pressure  
Sea Level Pressure 29.97 in    
Wind  
Wind Speed 5 mph (South)    
Max Wind Speed 21 mph    
Max Gust Speed 26 mph    
Visibility 9 miles    
Events Rain    
T = Trace of Precipitation, MM = Missing Value Source: NWS Daily Summary

Daily Weather History Graph

Daily Weather History Graph

Search for Another Location

Airport:

Trip Planner

Search our weather history database for the weather conditions in past years. The results will help you decide how hot, cold, wet, or windy it might be!

Date:

Astronomy

Apr. 19, 2013 Rise Set
Actual Time 6:55 AM EDT 7:57 PM EDT
Civil Twilight 6:31 AM EDT 8:22 PM EDT
Nautical Twilight 6:01 AM EDT 8:51 PM EDT
Astronomical Twilight 5:31 AM EDT 9:22 PM EDT
Moon 2:06 PM EDT 2:43 AM EDT
Length of Visible Light 13h 51m
Length of Day
13h 01m
First Quarter, 61% of the Moon is Illuminated
Apr 19
First Quarter
Apr 25
Full
May 2
Last Quarter
May 9
New
May 18
First Quarter

Hourly Weather History & Observations

Time (EDT) Temp. Heat Index Dew Point Humidity Pressure Visibility Wind Dir Wind Speed Gust Speed Precip Events Conditions
12:15 AM 71.6 °F - 69.8 °F 94% 30.02 in 10.0 mi Calm Calm - N/A   Clear
12:35 AM 71.6 °F - 71.6 °F 100% 30.02 in 10.0 mi ESE 3.5 mph - N/A   Clear
12:55 AM 71.6 °F - 71.6 °F 100% 30.02 in 10.0 mi Calm Calm - N/A   Clear
1:15 AM 71.6 °F - 71.6 °F 100% 30.01 in 10.0 mi SE 3.5 mph - N/A   Mostly Cloudy
1:35 AM 71.6 °F - 71.6 °F 100% 30.01 in 10.0 mi Calm Calm - N/A   Scattered Clouds
1:55 AM 71.6 °F - 71.6 °F 100% 29.99 in 10.0 mi ESE 4.6 mph - N/A   Scattered Clouds
2:15 AM 71.6 °F - 71.6 °F 100% 29.99 in 9.0 mi SE 3.5 mph - N/A   Partly Cloudy
2:35 AM 71.6 °F - 71.6 °F 100% 29.98 in 8.0 mi Calm Calm - N/A   Clear
2:55 AM 71.6 °F - 71.6 °F 100% 29.99 in 8.0 mi SSE 4.6 mph - N/A   Scattered Clouds
3:15 AM 71.6 °F - 71.6 °F 100% 29.98 in 9.0 mi SSE 4.6 mph - N/A   Scattered Clouds
3:35 AM 71.6 °F - 71.6 °F 100% 29.98 in 8.0 mi SSE 3.5 mph - N/A   Clear
3:55 AM 71.6 °F - 71.6 °F 100% 29.97 in 7.0 mi SSE 8.1 mph - N/A   Clear
4:15 AM 71.6 °F - 71.6 °F 100% 29.96 in 9.0 mi SSE 10.4 mph 17.3 mph N/A   Partly Cloudy
4:35 AM 71.6 °F - 69.8 °F 94% 29.97 in 7.0 mi SSE 10.4 mph 17.3 mph N/A Rain Light Rain
4:55 AM 71.6 °F - 71.6 °F 100% 29.97 in 9.0 mi SSE 6.9 mph - N/A   Scattered Clouds
5:15 AM 71.6 °F - 71.6 °F 100% 29.97 in 6.0 mi SE 9.2 mph - N/A Rain Light Rain
5:35 AM 69.8 °F - 69.8 °F 100% 29.98 in 7.0 mi Calm Calm - N/A Rain Light Rain
5:55 AM 69.8 °F - 69.8 °F 100% 29.98 in 10.0 mi South 5.8 mph - N/A   Partly Cloudy
6:15 AM 69.8 °F - 69.8 °F 100% 29.98 in 10.0 mi SSE 4.6 mph - N/A   Partly Cloudy
6:50 AM 69.8 °F - 68.0 °F 94% 29.99 in 5.0 mi South 11.5 mph - N/A   Mostly Cloudy
7:50 AM 71.6 °F - 66.2 °F 83% 30.01 in 7.0 mi SSW 6.9 mph - N/A   Scattered Clouds
8:50 AM 71.6 °F - 68.0 °F 88% 30.02 in 10.0 mi South 8.1 mph - N/A   Clear
9:50 AM 80.6 °F 84.6 °F 71.6 °F 74% 30.01 in 10.0 mi South 11.5 mph 19.6 mph N/A   Mostly Cloudy
10:50 AM 80.6 °F 84.6 °F 71.6 °F 74% 30.01 in 10.0 mi South 11.5 mph 19.6 mph N/A   Mostly Cloudy
11:50 AM 82.4 °F 86.3 °F 69.8 °F 66% 30.01 in 10.0 mi South 16.1 mph 26.5 mph N/A   Mostly Cloudy
12:50 PM 84.2 °F 88.4 °F 69.8 °F 62% 29.98 in 10.0 mi SSW 11.5 mph 26.5 mph N/A   Mostly Cloudy
1:50 PM 86.0 °F 89.4 °F 68.0 °F 55% 29.94 in 10.0 mi South 11.5 mph 26.5 mph N/A   Mostly Cloudy
2:50 PM 86.0 °F 89.4 °F 68.0 °F 55% 29.92 in 10.0 mi SSW 15.0 mph 23.0 mph N/A   Mostly Cloudy
3:50 PM 82.4 °F 87.2 °F 71.6 °F 70% 29.89 in 10.0 mi South 9.2 mph 21.9 mph N/A   Mostly Cloudy
4:50 PM 84.2 °F 88.4 °F 69.8 °F 62% 29.89 in 10.0 mi South 11.5 mph 23.0 mph N/A   Mostly Cloudy
5:50 PM 82.4 °F 87.2 °F 71.6 °F 70% 29.88 in 10.0 mi South 9.2 mph - N/A   Mostly Cloudy
6:50 PM 82.4 °F 86.3 °F 69.8 °F 66% 29.89 in 10.0 mi SW 10.4 mph 26.5 mph N/A   Scattered Clouds
7:50 PM 80.6 °F 83.9 °F 69.8 °F 70% 29.92 in 10.0 mi SW 5.8 mph - N/A   Scattered Clouds
8:15 PM 77.0 °F - 71.6 °F 83% 29.93 in 10.0 mi SSW 3.5 mph - N/A   Scattered Clouds
8:35 PM 77.0 °F - 71.6 °F 83% 29.93 in 10.0 mi Calm Calm - N/A   Mostly Cloudy
8:55 PM 77.0 °F - 71.6 °F 83% 29.94 in 10.0 mi South 4.6 mph - N/A   Mostly Cloudy
9:15 PM 77.0 °F - 71.6 °F 83% 29.95 in 10.0 mi SSW 5.8 mph - N/A   Scattered Clouds
9:35 PM 77.0 °F - 71.6 °F 83% 29.96 in 10.0 mi SSW 3.5 mph - N/A   Partly Cloudy
9:55 PM 75.2 °F - 71.6 °F 89% 29.96 in 10.0 mi Calm Calm - N/A   Scattered Clouds
10:15 PM 75.2 °F - 71.6 °F 89% 29.97 in 10.0 mi WNW 4.6 mph - N/A   Mostly Cloudy
10:35 PM 73.4 °F - 68.0 °F 83% 29.98 in 10.0 mi NNW 13.8 mph - N/A   Overcast
10:55 PM 71.6 °F - 68.0 °F 88% 30.00 in 8.0 mi NW 11.5 mph - N/A   Overcast
11:15 PM 68.0 °F - 68.0 °F 100% 30.01 in 3.0 mi NW 11.5 mph - 0.08 in Rain Light Rain
11:35 PM 68.0 °F - 66.2 °F 94% 30.01 in 5.0 mi NNW 20.7 mph 24.2 mph 0.09 in Rain Light Rain
11:55 PM 62.6 °F - 62.6 °F 100% 30.02 in 9.0 mi NNW 10.4 mph - 0.09 in   Overcast